User: anonymous   Login
Location: Unspecified
(0.0000°N, 0.0000°E)
Time: 06:11:22
(UTC+00:00)
Language:

STSS DEMO 1 (USA 208) - Orbit

View from above orbital plane
View from above orbital plane
View from above satellite
View from above satellite

Ground track
Ground track

The orbit data is extracted from the following two-line orbital elements,

1 35937U 09052A   14330.12792988 0.00000100  00000-0  44349-3 0    01
2 35937  57.9917  29.0820 0016464  70.7700 289.2299 12.79135916    05
Epoch (UTC): 26 November 2014 03:04:13
Eccentricity: 0.0016464
inclination: 57.9917°
perigee height: 1332 km
apogee height: 1357 km
right ascension of ascending node: 29.0820°
argument of perigee: 70.7700°
revolutions per day: 12.79135916
mean anomaly at epoch: 289.2299°
orbit number at epoch: 0

The dashed part of the orbit path shows where the satellite is in the earth's shadow,  

DLR